STARLINK-2623 (48368 NORAD) Tracking and Keplerian Element Data

This shows tracking and keplerian element data for the satellite.

Feedback or suggestion? Click here.




ElementValue
Catalog48368
NameSTARLINK-2623
Epoch Orbit1394
Epoch Day214.62108528
Epoch Year2021
RAAN333.728
Inclination53.056
Eccentricity0.0001126
Argument of Perigee92.1224
Mean Anonmoly267.9894
Mean Motion15.0639439
Decay Rate7.3E-06
L11 48368U 21038R 21214.62108528 .00000730 00000-0 67923-4 0 9996
L22 48368 53.0560 333.7280 0001126 92.1224 267.9894 15.06394390 13948

Live tracking and technical data element details for STARLINK-2623 (NORAD 48368). STARLINK-2623 can be tracked NOW for your location showing map with azimuth and elevation plus other details from your city location.

Track the satellite on the map from your city or location and see movement details for azimuth, elevation, latitude, longitude, range, height, and movement on the map or in text.







IsCatalogInMostPopularTable: catalog: 48368, numindb: 25
Update: records affected: 1



GetName: 48368 STARLINK-2623

Hit Count: updated at: Tue, 03 Aug 2021 23:07:14 GMT